Kbely Air Base

Jump to: basic info | weather | frequencies | runways | comments

Related pages: nearby airports | nearby navaids | notams | map

Basic information (top)

Codes: LKKB
Location: lon 50.121399, lat 14.543600, elev 939 ft / 286 m msl
Status: medium_airport

Weather (top)

Current conditions (rec'd 2014/07/30 19:00Z):

LKKB 301900Z 31006KT 8000 NSC 20/19 Q1009 NOSIG

Airport forecast (rec'd 2014/07/29 18:00Z):

TAF COR LKKB 291700Z 2918/3018 16005KT 9999 SCT040 
      TEMPO 2918/2920 8000 SHRA SCT035TCU 
      TEMPO 3002/3006 4000 BR SCT003 PROB30 
      TEMPO 3003/3006 VRB02KT 0500 FG BKN001 
      BECMG 3008/3010 26006KT 9999 BKN035 
      TEMPO 3010/3018 27012G22KT 5000 TSRA SCT025CB BKN030

Frequencies (top)

Verify before use: may be inaccurate or out of date.

APP: 124.675 MHz (APP)
GCA: 123.3 MHz (PRECISION)
TWR: 120.875 MHz (TWR)

Runways (top)

06/24: 6,562 x 148 ft (2,000 x 45 m) — paved — lighted

Latest comments (top)

No comments yet for Kbely Air Base

More... (top)

See also NOTAMs and nearby airports and navaids, or visit the Kbely Air Base page at the main OurAirports website..